Regional Weather Roundup
Issued by NWS

Home | Current Version | Previous Version | Text Only | Print | Product List | Glossary On
Versions: 1 2 3 4 5 6 7 8 9 10 11 12 13 14 15 16 17 18 19 20 21 22 23 24 25 26 27 28 29 30 31 32 33 34 35 36 37 38 39 40 41 42 43 44 45 46 47 48 49 50
000
ASMX46 KSGX 271503
RWRMX

MEXICAN WEATHER ROUNDUP
NATIONAL WEATHER SERVICE SAN DIEGO CA
700 AM PST TUE JAN 27 2015

BAJA CALIFORNIA

CITY           SKY/WX    TMP DP  RH WIND       PRES   REMARKS
LA PAZ         PTSUNNY   66  63  88 CALM      30.11
LORETO         MOCLDY    64  63  94 CALM      30.08
MEXICALI       CLOUDY    54  52  94 N5        30.22
S.J. DEL CABO  PTSUNNY   64  63  94 W12       30.09R
TIJUANA        MOCLDY    55  45  67 SE7       30.18R

NORTHWESTERN MEXICO

CITY           SKY/WX    TMP DP  RH WIND       PRES   REMARKS
CHIHUAHUA      SUNNY     37  34  87 CALM      30.36
CULIACAN       MOSUNNY   66  61  82 CALM      30.05
GUAYMAS        PTCLDY    66  61  82 CALM      30.07
HERMOSILLO     PTCLDY    61  59  94 CALM      30.16
LOS MOCHIS     PTSUNNY   64  57  77 CALM      30.09
OBREGON        MOCLDY    59  55  88 CALM      30.07

NORTHEASTERN MEXICO

CITY           SKY/WX    TMP DP  RH WIND       PRES   REMARKS
MATAMOROS      SUNNY     61  54  77 CALM      30.26
MONCLOVA       MOSUNNY   57  36  44 S9        30.25S
MONTERREY      MOSUNNY   57  43  58 CALM      30.23R
NUEVO LAREDO   CLOUDY    57  43  58 CALM      30.23
REYNOSA        SUNNY     59  39  47 CALM      30.23
SALTILLO       SUNNY     55  43  62 CALM      30.36R
TORREON        MOSUNNY   55  41  58 CALM      30.33R
VICTORIA       MOSUNNY   52  48  87 CALM      30.25

WESTERN MEXICO

CITY           SKY/WX    TMP DP  RH WIND       PRES   REMARKS
AGUASCALIENTES MOSUNNY   52  21  30 N10       30.39
COLIMA         MOSUNNY   73  54  49 CALM      30.09R
DURANGO        PTSUNNY   45  43  93 CALM      30.43R
GUADALAJARA    SUNNY     55  46  71 CALM      30.30
MANZANILLO     MOSUNNY   77  70  78 E12       29.93R
MAZATLAN       MOSUNNY   61  55  82 N10       29.98S
PTO. VALLARTA  SUNNY     70  64  83 CALM      30.01R
TEPIC          SUNNY     59  54  82 NW2       30.16R
URUAPAN        SUNNY     57  52  82 CALM      30.26R
ZACATECAS      MOSUNNY   48  36  61 CALM      30.42R

CENTRAL MEXICO

CITY           SKY/WX    TMP DP  RH WIND       PRES   REMARKS
LEON           MOSUNNY   57  28  33 NE7       30.43R
MEXICO CITY    SUNNY     50  37  62 E5        30.45R
MORELIA        SUNNY     52  41  66 CALM      30.36
POZA RICA      SUNNY     59  54  82 NW6       30.28R
PUEBLA         SUNNY     50  39  66 NE3       30.43R
QUERETARO      SUNNY     46  30  53 SW2       30.44R
S. LUIS POTOSI MOSUNNY   45  23  42 CALM      30.39R
TAMPICO        SUNNY     59  57  94 W7        30.26R
TOLUCA         SUNNY     48  37  66 CALM      30.48R
VERACRUZ       SUNNY     64  57  77 CALM      30.25R

SOUTHERN MEXICO

CITY           SKY/WX    TMP DP  RH WIND       PRES   REMARKS
ACAPULCO       SUNNY     81  75  83 CALM      29.99R
B. DE HUATULCO SUNNY     72  64  78 CALM      30.02
MINATITLAN     FOG       63  63 100 SW7       30.20  VSB 1/8
OAXACA         SUNNY     52  43  71 N2        30.36R
PTO. ESCONDIDO SUNNY     73  61  64 E12       30.10R
TAPACHULA      SUNNY     79  68  69 CALM      29.99R
TUX. GUTIERREZ PTSUNNY   66  54  63 NW10      30.21R
VILLAHERMOSA   FOG       66  66 100 W5        30.24R VSB 1
ZIHUATANEJO    PTSUNNY   77  68  73 CALM        N/A

YUCATAN PENINSULA

CITY           SKY/WX    TMP DP  RH WIND       PRES   REMARKS
CAMPECHE       SUNNY     66  63  88 CALM      30.18R
CANCUN         MOSUNNY   66  57  72 NW6       30.15R
CHETUMAL       SUNNY     66  55  68 CALM      30.18R
C. DEL CARMEN  MOSUNNY   72  64  78 CALM      30.20
COZUMEL        SUNNY     68  59  73 NW12      30.17R
MERIDA         MOSUNNY   70  57  64 W8        30.19R

$$



USA.gov is the U.S. government's official web portal to all federal, state and local government web resources and services.